Regional Weather Roundup
Issued by NWS Sterling, VA

Home | Current Version | Previous Version | Text Only | Print | Product List | Glossary Off
Versions: 1 2 3 4 5 6 7 8 9 10 11 12 13 14 15 16 17 18 19 20 21 22 23 24 25 26 27

000
ASUS41 KLWX 141111
RWRLWX

REGIONAL WEATHER ROUNDUP
NATIONAL WEATHER SERVICE BALTIMORE MD/WASHINGTON DC
600 AM EST THU DEC 14 2017

Note: "FAIR" indicates few or no clouds below 12,000 feet
with no significant weather and/or obstructions to visibility.
 TC=TEMPERATURE CELSIUS

 * =Non NWS site. Station does not report precipitation (e.g. rain,
    snow, etc.), thunder, or fog.

DCZ001-MDZ009-015-VAZ040>042-051-053>054-141200-
WASHINGTON METRO

CITY           SKY/WX    TMP DP  RH WIND       PRES   REMARKS
WASHINGTON NAT MOCLDY    38  18  44 SW8       29.57R
DULLES         CLOUDY    30  19  63 S6        29.56R
ANDREWS AFB    CLOUDY    36  18  47 W10       29.54R WCI  29
FT BELVOIR     CLOUDY    35  19  53 CALM      29.57R
QUANTICO       MOCLDY    39  19  44 W10G17    29.57R
COLLEGE PARK*  CLOUDY    37  17  45 CALM      29.54R
LEESBURG*      CLOUDY    34  21  60 W7        29.56R
MANASSAS*      CLOUDY    35  19  52 W5        29.57R
GAITHERSBURG*  CLOUDY    33  17  51 W8        29.55R WCI  26

$$

MDZ006>007-011-014-141200-
BALTIMORE METRO

CITY           SKY/WX    TMP DP  RH WIND       PRES   REMARKS
BWI AIRPORT    CLOUDY    36  21  54 W10       29.54R WCI  28
MD SCIENCE CTR   N/A     37  21  52 MISG      29.55R
MARTIN STATE   CLOUDY    37  25  60 SW6       29.55R
ANNAPOLIS      CLOUDY    38  19  46 W8G17     29.54R
FORT MEADE*    CLOUDY    34  21  60 SW7       29.56R

$$

MDZ012-015-019>023-141200-
MARYLAND EASTERN SHORE

CITY           SKY/WX    TMP DP  RH WIND       PRES   REMARKS
OCEAN CITY     CLOUDY    37  26  64 SW10      29.57R
SALISBURY      CLEAR     38  25  59 SW13      29.56R
BAY BRIDGE AP* CLOUDY    39  21  48 SW9       29.55R
CAMBRIDGE*     PTCLDY    37  21  52 CALM      29.56R
EASTON*        MOCLDY    39  25  56 SW9       29.58R

$$

MDZ017>025-141200-
SOUTHERN MARYLAND

CITY           SKY/WX    TMP DP  RH WIND       PRES   REMARKS
PATUXENT RIVER MOCLDY    39  20  46 SW14G23   29.56R
ST INIGOES     MOCLDY    40  22  48 SW20G29   29.56R
LEONARDTOWN*   MOCLDY    37  23  56 SW12G20   29.57R

$$

MDZ003>005-141200-
NORTH CENTRAL MARYLAND

CITY           SKY/WX    TMP DP  RH WIND       PRES   REMARKS
FREDERICK*     CLOUDY    32  23  69 SW3       29.57R
HAGERSTOWN APT CLOUDY    29  23  78 CALM      29.53R
WESTMINSTER*   CLOUDY    32  21  64 SW5       29.51R

$$

MDZ501>502-141200-
WESTERN MARYLAND

CITY           SKY/WX    TMP DP  RH WIND       PRES   REMARKS
OAKLAND*       CLOUDY    25  23  93 W15G25    29.46R WCI  12
CUMBERLAND*    PTCLDY    36  30  80 W8G23     29.58R

$$

VAZ025>031-141200-
SHENANDOAH VALLEY

CITY           SKY/WX    TMP DP  RH WIND       PRES   REMARKS
WINCHESTER*    CLOUDY    32  23  69 W16G22    29.53R WCI  21
FRONT ROYAL*   CLOUDY    32  19  59 CALM      29.53R
LURAY*         CLOUDY    43  28  56 W15G21    29.54R
NEW MARKET*    CLOUDY    41  27  58 W8G18     29.54R
STAUNTON*      CLOUDY    43  24  47 W12G20    29.56R
WAYNESBORO*    CLOUDY    43  22  44 W7        29.53R

$$

WVZ021-048>050-054>055-141200-
EASTERN WEST VIRGINIA PANHANDLE

CITY           SKY/WX    TMP DP  RH WIND       PRES   REMARKS
MARTINSBURG    LGT SNOW  27  23  85 CALM      29.53R FOG
PETERSBURG*    FLURRIES  37  28  71 NW28G33   29.57R WCI  25

$$

VAZ036>039-050-141200-
CENTRAL FOOTHILLS

CITY           SKY/WX    TMP DP  RH WIND       PRES   REMARKS
CHARLOTTESVILL MOCLDY    36  18  48 S10       29.54R WCI  28
CULPEPER*      CLOUDY    36  17  45 W5        29.57R
ORANGE*        MOCLDY    32  19  59 SW8G16    29.55R WCI  25
GORDONSVILLE*  MOCLDY    30  19  62 SW6       29.56R
WARRENTON*     CLOUDY    37  15  39 SW5       29.56R

$$

VAZ055>057-141200-
NORTH AND CENTRAL PIEDMONT

CITY           SKY/WX    TMP DP  RH WIND       PRES   REMARKS
FREDERICKSBRG* PTCLDY    38  21  50 SW14G24   29.56R
STAFFORD*      PTCLDY    37  19  47 SW7       29.59R

$$

NCZ024-NYZ072-PAZ021-071-VAZ022-071-141200-
OTHER REGIONAL OBSERVATIONS

CITY           SKY/WX    TMP DP  RH WIND       PRES   REMARKS
NEW YORK CITY  CLOUDY    27  23  85 NE6       29.56R
PHILADELPHIA   CLOUDY    31  27  85 CALM      29.54R
PITTSBURGH     FLURRIES  26  20  77 NW18      29.64R WCI  13
ROANOKE        CLEAR     44  22  41 W20G33    29.61R
RICHMOND       PTCLDY    36  20  52 SW12      29.63R WCI  28
RALEIGH        PTCLDY    33  20  58 SW9       29.73R WCI  25

$$

ANZ530>537-141200-
MARINE OBSERVATIONS

STATION/POSITION TIME  TEMP    WIND        PRES
                       AIR SEA DIR/SP/G
                 (UTC) (F)     (DEG/KT/KT) (MB)
THOMAS PT LIGHT  1100   39 44  260/ 17/ 18   N/A
BALT KEY BRIDGE  1048   38     250/ 11/ 12  999.9R
COVE POINT       1048   40     250/ 16/ 22 1001.2R
LEWISETTA        1048   39 40  250/ 15/ 20 1001.7R
SOLOMONS ISLAND  1048   41 46  230/ 17/ 22 1000.5R
PINEY POINT      1048          250/ 14/ 18   N/A

$$





USA.gov is the U.S. government's official web portal to all federal, state and local government web resources and services.